Regional Weather Roundup
Issued by NWS

Home | Current Version | Previous Version | Text Only | Print | Product List | Glossary On
Versions: 1 2 3 4 5 6 7 8 9 10 11 12 13 14 15 16 17 18 19 20 21 22 23 24 25 26 27
000
ASUS44 KBMX 210210
RWRAL

ALABAMA REGIONAL WEATHER ROUNDUP
NATIONAL WEATHER SERVICE BIRMINGHAM AL
900 PM CDT FRI APR 20 2018

NOTE: "FAIR" INDICATES FEW OR NO CLOUDS BELOW 12,000 FEET
WITH NO SIGNIFICANT WEATHER AND/OR OBSTRUCTIONS TO VISIBILITY.

THE REMARK "TC" DENOTES TEMPERATURE IN DEGREES CELSIUS.

ALZ001>011-014-016>018-020-210300-
NORTH ALABAMA

CITY           SKY/WX    TMP DP  RH WIND       PRES   REMARKS
MUSCLE SHOALS  FAIR      58  36  43 NE6       30.27S
HUNTSVILLE     FAIR      56  41  57 S3        30.26R
DECATUR        FAIR      50  41  71 NE6       30.27R
HALEYVILLE     FAIR      49  41  74 CALM      30.28S
GADSDEN        FAIR      51  40  65 CALM      30.28R
$$

ALZ012-013-022-023-030>036-040>044-210300-
WEST CENTRAL ALABAMA

CITY           SKY/WX    TMP DP  RH WIND       PRES   REMARKS
TUSCALOOSA     FAIR      56  43  61 NE3       30.24R
DEMOPOLIS      FAIR      52  47  83 CALM      30.22R
$$

ALZ015-024>026-033>036-041>044-210300-
CENTRAL ALABAMA

CITY           SKY/WX    TMP DP  RH WIND       PRES   REMARKS
BIRMINGHAM     FAIR      58  37  45 NE3       30.28R
MONTGOMERY     FAIR      60  45  57 CALM      30.23S
SHELBY CO ARPT FAIR      58  38  47 CALM      30.25R
MAXWELL AFB    FAIR      61  41  49 NE6       30.22R
GREENVILLE     FAIR      60  42  51 NE6       30.22R
SELMA          FAIR      50  46  87 SE5       30.23R
PRATTVILLE     FAIR      57  42  56 CALM      30.23R
BESSEMER       FAIR      59  36  42 NE5       30.26R
TALLADEGA      FAIR      54  39  57 CALM      30.27S
PELL CITY      CLEAR     46  43  87 CALM      30.27R
MARION         FAIR      57  44  63 CALM      30.22R
SYLACAUGA      FAIR      51  43  72 CALM      30.26R
$$

ALZ019-021-028-029-037-038-045>048-210300-
EAST CENTRAL ALABAMA

CITY           SKY/WX    TMP DP  RH WIND       PRES   REMARKS
ANNISTON       FAIR      53  41  63 CALM      30.27R
ALEXANDER CITY FAIR      54  47  77 CALM      30.26S
AUBURN         FAIR      58  40  51 NE8       30.27S
$$

ALZ051>064-210300-
SOUTHWEST ALABAMA

CITY           SKY/WX    TMP DP  RH WIND       PRES   REMARKS
MOBILE         FAIR      56  49  77 MISG      30.19R
BROOKLEY FIELD FAIR      60  51  72 SW5       30.19R
EVERGREEN      FAIR      58  47  66 NE5       30.21R
$$

ALZ049-050-065>069-210300-
SOUTHEAST ALABAMA

CITY           SKY/WX    TMP DP  RH WIND       PRES   REMARKS
DOTHAN         FAIR      64  41  42 NE8       30.25R
OZARK          FAIR      59  45  60 NE7       30.21R
TROY           FAIR      55  46  71 CALM      30.24R
EUFAULA        FAIR      55  48  77 CALM      30.23S
$$




USA.gov is the U.S. government's official web portal to all federal, state and local government web resources and services.